When you browse on this site, cookies collect data to enhance your experience and personalize the content and advertising you see.
Visit our Privacy Policy to learn more. By continuing to use the site, you agree to this use of cookies and data.
  • In Hungary
  • List of Countries
  • For 7 days
  • Water Temperature
  • Satellite Maps
  • Weather Map
  • News
  • Weather Widgets
  • user-avatar
    Login

    Hourly Weather Freudenstadt

    Today, 23 February, Saturday

    Time Temperature Precipitation Wind Pressure Humidity
    00:00 +2°C° 0 mm 2 mps 705 mmHg 95%
    01:00 +1°C° 0 mm 3 mps 705 mmHg 95%
    02:00 +1°C° 0 mm 3 mps 705 mmHg 94%
    03:00 +1°C° 0 mm 3 mps 705 mmHg 92%
    04:00 +1°C° 0 mm 3 mps 705 mmHg 90%
    05:00 +1°C° 0 mm 2 mps 704 mmHg 92%
    06:00 -1°C° 0 mm 2 mps 704 mmHg 93%
    07:00 -1°C° 0 mm 1 mps 704 mmHg 96%
    08:00 -1°C° 0 mm 2 mps 704 mmHg 88%
    09:00 +1°C° 0 mm 2 mps 704 mmHg 80%
    10:00 +1°C° 0 mm 3 mps 704 mmHg 72%
    11:00 +2°C° 0 mm 3 mps 704 mmHg 62%
    12:00 +4°C° 0 mm 4 mps 704 mmHg 52%
    13:00 +5°C° 0 mm 4 mps 705 mmHg 42%
    14:00 +5°C° 0 mm 4 mps 704 mmHg 40%
    15:00 +5°C° 0 mm 4 mps 704 mmHg 38%
    16:00 +5°C° 0 mm 4 mps 703 mmHg 37%
    17:00 +3°C° 0 mm 4 mps 703 mmHg 40%
    18:00 +2°C° 0 mm 3 mps 703 mmHg 44%
    19:00 0°C° 0 mm 3 mps 703 mmHg 47%
    20:00 -1°C° 0 mm 3 mps 703 mmHg 46%
    21:00 -1°C° 0 mm 3 mps 703 mmHg 45%
    22:00 -2°C° 0 mm 3 mps 703 mmHg 44%
    23:00 -2°C° 0 mm 3 mps 703 mmHg 43%

    Tomorrow, 24 February, Sunday

    Time Temperature Precipitation Wind Pressure Humidity
    00:00 -2°C° 0 mm 2 mps 703 mmHg 42%
    01:00 -3°C° 0 mm 2 mps 703 mmHg 41%
    02:00 -3°C° 0 mm 2 mps 703 mmHg 41%
    03:00 -3°C° 0 mm 2 mps 703 mmHg 41%
    04:00 -3°C° 0 mm 2 mps 703 mmHg 40%
    05:00 -3°C° 0 mm 2 mps 703 mmHg 40%
    06:00 -1°C° 0 mm 1 mps 703 mmHg 40%
    07:00 -1°C° 0 mm 1 mps 704 mmHg 40%
    08:00 -1°C° 0 mm 2 mps 704 mmHg 36%
    09:00 +2°C° 0 mm 2 mps 705 mmHg 32%
    10:00 +4°C° 0 mm 2 mps 705 mmHg 28%
    11:00 +5°C° 0 mm 2 mps 706 mmHg 28%
    12:00 +7°C° 0 mm 2 mps 706 mmHg 29%
    13:00 +9°C° 0 mm 2 mps 706 mmHg 29%
    14:00 +9°C° 0 mm 2 mps 706 mmHg 32%
    15:00 +8°C° 0 mm 2 mps 705 mmHg 36%
    16:00 +8°C° 0 mm 2 mps 705 mmHg 40%
    17:00 +6°C° 0 mm 2 mps 705 mmHg 46%
    18:00 +4°C° 0 mm 2 mps 705 mmHg 53%
    19:00 +2°C° 0 mm 2 mps 705 mmHg 59%
    20:00 +1°C° 0 mm 2 mps 705 mmHg 59%
    21:00 +1°C° 0 mm 2 mps 705 mmHg 59%
    22:00 -1°C° 0 mm 2 mps 705 mmHg 60%
    23:00 -1°C° 0 mm 2 mps 704 mmHg 59%

    Day after tomorrow, 25 February, Monday

    Time Temperature Precipitation Wind Pressure Humidity
    00:00 -1°C° 0 mm 2 mps 704 mmHg 59%
    01:00 +1°C° 0 mm 1 mps 704 mmHg 58%
    02:00 -1°C° 0 mm 2 mps 704 mmHg 59%
    03:00 -1°C° 0 mm 2 mps 704 mmHg 59%
    04:00 -1°C° 0 mm 2 mps 704 mmHg 60%
    05:00 -1°C° 0 mm 2 mps 704 mmHg 61%
    06:00 -1°C° 0 mm 2 mps 704 mmHg 62%
    07:00 -1°C° 0 mm 2 mps 704 mmHg 64%
    08:00 +2°C° 0 mm 2 mps 705 mmHg 61%
    09:00 +3°C° 0 mm 2 mps 705 mmHg 58%
    10:00 +5°C° 0 mm 2 mps 706 mmHg 55%
    11:00 +7°C° 0 mm 3 mps 706 mmHg 54%
    12:00 +8°C° 0 mm 3 mps 706 mmHg 52%
    13:00 +10°C° 0 mm 3 mps 706 mmHg 51%
    14:00 +10°C° 0 mm 3 mps 706 mmHg 53%
    15:00 +10°C° 0 mm 3 mps 706 mmHg 55%
    16:00 +10°C° 0 mm 3 mps 705 mmHg 56%
    17:00 +8°C° 0 mm 2 mps 705 mmHg 65%
    18:00 +6°C° 0 mm 2 mps 705 mmHg 74%
    19:00 +5°C° 0 mm 1 mps 705 mmHg 83%
    20:00 +4°C° 0 mm 1 mps 705 mmHg 84%
    21:00 +4°C° 0 mm 1 mps 705 mmHg 85%
    22:00 +4°C° 0 mm 1 mps 705 mmHg 86%
    23:00 +3°C° 0 mm 1 mps 705 mmHg 86%

    26 February, Tuesday

    Time Temperature Precipitation Wind Pressure Humidity
    00:00 +3°C° 0 mm 1 mps 705 mmHg 86%
    01:00 +3°C° 0 mm 1 mps 705 mmHg 85%
    02:00 +3°C° 0 mm 1 mps 704 mmHg 85%
    03:00 +2°C° 0 mm 1 mps 704 mmHg 85%
    04:00 +2°C° 0 mm 1 mps 704 mmHg 84%
    05:00 +2°C° 0 mm 1 mps 704 mmHg 83%
    06:00 +2°C° 0 mm 1 mps 704 mmHg 82%
    07:00 +2°C° 0 mm 1 mps 703 mmHg 81%
    08:00 +4°C° 0 mm 1 mps 704 mmHg 73%
    09:00 +6°C° 0 mm 1 mps 704 mmHg 66%
    10:00 +8°C° 0 mm 1 mps 705 mmHg 59%
    11:00 +10°C° 0 mm 1 mps 705 mmHg 53%
    12:00 +12°C° 0 mm 1 mps 705 mmHg 48%
    13:00 +14°C° 0 mm 1 mps 705 mmHg 42%
    14:00 +13°C° 0 mm 2 mps 705 mmHg 45%
    15:00 +13°C° 0 mm 2 mps 704 mmHg 48%
    16:00 +13°C° 0 mm 2 mps 704 mmHg 50%
    17:00 +10°C° 0 mm 2 mps 704 mmHg 58%
    18:00 +9°C° 0 mm 1 mps 703 mmHg 67%
    19:00 +6°C° 0 mm 1 mps 703 mmHg 75%
    20:00 +6°C° 0 mm 1 mps 703 mmHg 75%
    21:00 +5°C° 0 mm 1 mps 703 mmHg 76%
    22:00 +5°C° 0 mm 1 mps 703 mmHg 77%
    23:00 +5°C° 0 mm 1 mps 702 mmHg 76%

    27 February, Wednesday

    Time Temperature Precipitation Wind Pressure Humidity
    00:00 +4°C° 0 mm 1 mps 702 mmHg 76%
    01:00 +4°C° 0 mm 1 mps 702 mmHg 76%
    02:00 +4°C° 0 mm 1 mps 702 mmHg 75%
    03:00 +4°C° 0 mm 1 mps 701 mmHg 74%
    04:00 +3°C° 0 mm 1 mps 701 mmHg 74%
    05:00 +3°C° 0 mm 1 mps 701 mmHg 73%
    06:00 +3°C° 0 mm 1 mps 701 mmHg 72%
    07:00 +3°C° 0 mm 1 mps 700 mmHg 72%
    08:00 +5°C° 0 mm 1 mps 701 mmHg 65%
    09:00 +7°C° 0 mm 1 mps 701 mmHg 59%
    10:00 +10°C° 0 mm 1 mps 701 mmHg 52%
    11:00 +10°C° 0 mm 0 mps 701 mmHg 48%
    12:00 +12°C° 0 mm 0 mps 702 mmHg 44%
    13:00 +14°C° 0 mm 0 mps 702 mmHg 40%
    14:00 +14°C° 0 mm 0 mps 701 mmHg 41%
    15:00 +14°C° 0 mm 0 mps 701 mmHg 43%
    16:00 +14°C° 0 mm 0 mps 700 mmHg 45%
    17:00 +11°C° 0 mm 0 mps 700 mmHg 51%
    18:00 +9°C° 0 mm 0 mps 699 mmHg 58%
    19:00 +7°C° 0 mm 0 mps 699 mmHg 65%
    20:00 +7°C° 0 mm 1 mps 699 mmHg 67%
    21:00 +7°C° 0 mm 1 mps 699 mmHg 68%
    22:00 +6°C° 0 mm 1 mps 699 mmHg 70%
    23:00 +6°C° 0 mm 1 mps 699 mmHg 71%

    28 February, Thursday

    Time Temperature Precipitation Wind Pressure Humidity
    00:00 +5°C° 0 mm 1 mps 699 mmHg 73%
    01:00 +5°C° 0 mm 1 mps 699 mmHg 75%
    02:00 +4°C° 0 mm 2 mps 698 mmHg 76%
    03:00 +4°C° 0 mm 2 mps 698 mmHg 76%
    04:00 +3°C° 0 mm 2 mps 698 mmHg 77%
    05:00 +3°C° 0 mm 2 mps 698 mmHg 77%
    06:00 +3°C° 0 mm 2 mps 698 mmHg 78%
    07:00 +2°C° 0 mm 3 mps 698 mmHg 79%
    08:00 +4°C° 0 mm 3 mps 698 mmHg 76%
    09:00 +6°C° 0 mm 4 mps 699 mmHg 74%
    10:00 +7°C° 0 mm 4 mps 699 mmHg 71%
    11:00 +8°C° 0 mm 4 mps 699 mmHg 67%
    12:00 +9°C° 0 mm 5 mps 699 mmHg 64%
    13:00 +10°C° 0 mm 5 mps 699 mmHg 60%
    14:00 +10°C° 0 mm 5 mps 699 mmHg 61%
    15:00 +10°C° 0 mm 5 mps 699 mmHg 62%
    16:00 +9°C° 0 mm 5 mps 699 mmHg 63%
    17:00 +8°C° 0 mm 4 mps 699 mmHg 72%
    18:00 +6°C° 0 mm 4 mps 699 mmHg 81%
    19:00 +5°C° 0 mm 3 mps 699 mmHg 89%
    20:00 +5°C° 0 mm 2 mps 699 mmHg 90%
    21:00 +5°C° 0 mm 2 mps 699 mmHg 91%
    22:00 +5°C° 0 mm 1 mps 699 mmHg 92%
    23:00 +5°C° 0 mm 1 mps 699 mmHg 93%
    Show more